Content
SEND FEEDBACK

Daily
Averages
Monthly
Summary
United States of America

UMATAC, GUAM


Home > North America > United States > Guam
Elevation: 190 feet     Latitude: 13 17N     Longitude: 144 40E

WEATHER
 
SELECT A DAY
Number of Records: 341,716;   Date Range: 1/1/95 - 7/22/14
 
SHARE

PRINT THIS DATA

[ ← Previous Day ]
WEATHER ALMANAC - JULY 7, 2013
[ Next Day → ]
[ °C ]   °F
We're sorry. There is no daily almanac available for Umatac, Guam on July 7, 2013.
WEATHER BY HOUR - JULY 7, 2013
[ °C ]   °F
Local TimeTemperatureDewpointHumidityBarometerVisibilityWind DirectionWind SpeedGust SpeedPrecipitationEventsConditions
1:55 AM78.1 °F75.2 °F91 %29.82 in10.0 miENE (70°)8.1 mphClear
2:55 AM78.3 °F75.6 °F91 %29.81 in10.0 miENE (70°)5.8 mphClear
3:55 AM78.4 °F75.4 °F90 %29.81 in10.0 miENE (70°)4.6 mphClear
4:55 AM78.3 °F75.6 °F91 %29.80 in10.0 miEast (80°)4.6 mphScattered Clouds
5:06 AM78.8 °F75.2 °F89 %29.80 in10.0 miEast (80°)3.5 mphMostly Cloudy
5:14 AM78.8 °F75.2 °F89 %29.80 in10.0 miEast (80°)4.6 mphScattered Clouds
5:16 AM78.8 °F75.2 °F89 %29.80 in10.0 miEast (80°)4.6 mphMostly Cloudy
5:23 AM78.8 °F75.2 °F89 %29.80 in10.0 miEast (100°)3.5 mphScattered Clouds
5:24 AM78.8 °F75.2 °F89 %29.80 in10.0 miEast (100°)3.5 mphMostly Cloudy
5:27 AM78.8 °F75.2 °F89 %29.80 in10.0 miESE (110°)3.5 mphScattered Clouds
5:55 AM77.7 °F75.2 °F92 %29.80 in10.0 miEast (90°)3.5 mphPartly Cloudy
6:18 AM78.8 °F75.2 °F89 %29.81 in10.0 miCalmMostly Cloudy
6:27 AM78.8 °F75.2 °F89 %29.81 in10.0 miEast (100°)3.5 mphScattered Clouds
6:35 AM78.8 °F75.2 °F89 %29.81 in10.0 miEast (100°)3.5 mphMostly Cloudy
6:49 AM78.8 °F77.0 °F94 %29.81 in10.0 miCalmScattered Clouds
6:55 AM79.3 °F76.3 °F90 %29.82 in10.0 miCalmScattered Clouds
7:21 AM80.6 °F77.0 °F89 %29.82 in10.0 miEast (80°)5.8 mphRainLight Rain
7:31 AM80.6 °F77.0 °F89 %29.82 in10.0 miEast (90°)6.9 mphMostly Cloudy
7:34 AM80.6 °F78.8 °F94 %29.82 in10.0 miEast (100°)5.8 mphMostly Cloudy
7:35 AM80.6 °F78.8 °F94 %29.82 in10.0 miESE (110°)5.8 mphMostly Cloudy
7:48 AM82.4 °F77.0 °F84 %29.83 in10.0 miEast (100°)5.8 mphMostly Cloudy
7:52 AM82.4 °F78.8 °F89 %29.83 in10.0 miESE (110°)5.8 mphMostly Cloudy
7:55 AM82.0 °F78.1 °F88 %29.83 in10.0 miSE (130°)6.9 mph0.00 inMostly Cloudy
7:57 AM82.4 °F78.8 °F89 %29.83 in10.0 miSE (130°)6.9 mphMostly Cloudy
8:05 AM82.4 °F78.8 °F89 %29.83 in10.0 miESE (110°)8.1 mphMostly Cloudy
8:08 AM82.4 °F78.8 °F89 %29.83 in10.0 miEast (100°)5.8 mphMostly Cloudy
8:12 AM82.4 °F78.8 °F89 %29.83 in10.0 miESE (110°)6.9 mphScattered Clouds
8:55 AM83.1 °F78.4 °F86 %29.84 in10.0 miEast (100°)5.8 mphScattered Clouds
9:55 AM84.2 °F78.4 °F83 %29.83 in10.0 miESE (120°)9.2 mphPartly Cloudy
10:18 AM84.2 °F78.8 °F84 %29.83 in10.0 miESE (110°)9.2 mphMostly Cloudy
10:22 AM84.2 °F78.8 °F84 %29.83 in10.0 miSE (130°)8.1 mphScattered Clouds
10:40 AM84.2 °F78.8 °F84 %29.83 in10.0 miEast (100°)8.1 mphMostly Cloudy
10:52 AM84.2 °F78.8 °F84 %29.83 in10.0 miESE (110°)8.1 mphScattered Clouds
10:55 AM85.1 °F78.6 °F81 %29.83 in10.0 miESE (120°)6.9 mphScattered Clouds
11:55 AM86.2 °F79.2 °F79 %29.82 in10.0 miESE (120°)11.5 mphPartly Cloudy
12:55 PM86.4 °F78.3 °F77 %29.81 in10.0 miSE (140°)8.1 mphPartly Cloudy
1:08 PM84.2 °F77.0 °F79 %29.81 in10.0 miSE (130°)9.2 mphMostly Cloudy
1:51 PM82.4 °F78.8 °F89 %29.80 in10.0 miNNW (340°)9.2 mphRainLight Rain
1:55 PM81.3 °F78.6 °F91 %29.80 in5.0 miWNW (300°)12.7 mph0.02 inRainLight Rain
2:08 PM78.8 °F77.0 °F94 %29.81 in2.0 miWSW (250°)8.1 mphRainHeavy Rain
2:09 PM78.8 °F77.0 °F94 %29.81 in1.5 miWSW (240°)6.9 mphRainHeavy Rain
2:10 PM78.8 °F77.0 °F94 %29.80 in1.2 miWSW (240°)5.8 mphRainHeavy Rain
2:11 PM78.8 °F77.0 °F94 %29.81 in1.0 miWSW (240°)4.6 mphRainHeavy Rain
2:13 PM78.8 °F77.0 °F94 %29.80 in0.8 miWest (260°)5.8 mphRainHeavy Rain
2:18 PM77.0 °F77.0 °F100 %29.80 in1.0 miCalmRainLight Rain
2:19 PM77.0 °F77.0 °F100 %29.80 in1.2 miCalmRainLight Rain
2:20 PM78.8 °F77.0 °F94 %29.80 in1.5 miCalmRainLight Rain
2:22 PM78.8 °F77.0 °F94 %29.80 in2.5 miWest (270°)6.9 mphRainLight Rain
2:23 PM78.8 °F77.0 °F94 %29.80 in4.0 miWest (270°)4.6 mphRainLight Rain
2:30 PM78.8 °F78.8 °F100 %29.79 in10.0 miSW (230°)8.1 mphRainLight Rain
2:34 PM78.8 °F78.8 °F100 %29.79 in10.0 miSW (220°)9.2 mphMostly Cloudy
2:55 PM80.1 °F76.8 °F90 %29.79 in10.0 miWest (260°)4.6 mph0.21 inPartly Cloudy
3:55 PM80.6 °F79.2 °F95 %29.79 in10.0 miWest (270°)6.9 mphPartly Cloudy
4:55 PM79.9 °F77.9 °F94 %29.78 in10.0 miWNW (290°)5.8 mphClear
5:55 PM82.2 °F78.4 °F88 %29.78 in10.0 miSW (230°)4.6 mphClear
6:55 PM80.1 °F77.5 °F92 %29.79 in10.0 miCalmClear
7:55 PM78.6 °F77.0 °F95 %29.80 in10.0 miSSW (200°)4.6 mphClear
8:55 PM78.3 °F76.6 °F95 %29.81 in10.0 miSSW (200°)5.8 mphClear
9:55 PM77.7 °F76.1 °F95 %29.82 in10.0 miSSW (210°)4.6 mphClear
10:55 PM77.5 °F75.4 °F93 %29.83 in10.0 miSSW (210°)5.8 mphClear
11:55 PM77.2 °F74.8 °F92 %29.81 in10.0 miSSW (210°)4.6 mphClear
Hourly data recorded from PGUA, located miles away from Umatac, Guam







STORIES FROM OUR PARTNERS